Regional Weather Roundup
Issued by NWS

Home | Current Version | Previous Version | Text Only | Print | Product List | Glossary Off
Versions: 1 2 3 4 5 6 7 8 9 10 11 12 13 14 15 16 17 18 19 20 21 22 23 24 25 26 27 28 29 30 31 32 33 34 35 36 37 38 39 40 41 42 43 44 45 46 47 48 49 50

000
ASUS45 KCYS 070010
RWRWY

WYOMING REGIONAL WEATHER ROUNDUP
NATIONAL WEATHER SERVICE CHEYENNE WY
600 PM MDT WED MAY 06 2015

NOTE:  "FAIR" INDICATES FEW OR NO CLOUDS BELOW 12,000 FEET
WITH NO SIGNIFICANT WEATHER AND/OR OBSTRUCTIONS TO VISIBILITY.

WYZ001-070100-
YELLOWSTONE NATIONAL PARK

CITY           SKY/WX    TMP DP  RH WIND       PRES   REMARKS
LK YELLOWSTONE   N/A     44  34  67 VRB7      29.84F
6HR MIN TEMP:  39; 6HR MAX TEMP:  52;

W YELLOWSTONE  NOT AVBL

$$
WYZ002>013-054>058-071-098>099-070100-
NORTHERN WYOMING

CITY           SKY/WX    TMP DP  RH WIND       PRES   REMARKS
JACKSON        PTSUNNY   54  36  50 W14       29.74S
CODY           CLOUDY    48  34  57 N18       29.86S
GREYBULL       LGT RAIN  54  34  46 NW22G28   29.79R
6HR MIN TEMP:  48; 6HR MAX TEMP:  55; 6HR PCP:  0.01;

WORLAND        CLOUDY    52  39  61 NW14      29.82R
6HR MIN TEMP:  48; 6HR MAX TEMP:  52; 6HR PCP:  0.07;

SHERIDAN       CLOUDY    47  37  68 W10       29.88R
6HR MIN TEMP:  43; 6HR MAX TEMP:  47; 6HR PCP: TRACE;

BUFFALO        CLOUDY    44  33  65 NW26G39   29.86R
6HR MIN TEMP:  43; 6HR MAX TEMP:  55;

GILLETTE       CLOUDY    44  42  93 NW23G31   29.80R FOG
6HR MIN TEMP:  44; 6HR MAX TEMP:  50; 6HR PCP:  0.06;

HULETT         RAIN      45  43  93 N9        29.79R
NEWCASTLE      LGT RAIN  46  43  87 NW21G29   29.73R

$$
WYZ014>020-022>026-101>103-070100-
CENTRAL WYOMING

CITY           SKY/WX    TMP DP  RH WIND       PRES   REMARKS
BIG PINEY      CLOUDY    56  31  38 SE17      29.76R
6HR MIN TEMP:  56; 6HR MAX TEMP:  64; 6HR PCP: TRACE;

PINEDALE       CLOUDY    52  37  58 NE6       29.76R
DUBOIS         FAIR      48  36  61 SE18G24   29.79R
LANDER         LGT RAIN  47  44  90 NE9       29.81R
6HR MIN TEMP:  47; 6HR MAX TEMP:  54; 6HR PCP:  0.05;

RIVERTON       LGT RAIN  49  40  71 NE15      29.82R
6HR MIN TEMP:  48; 6HR MAX TEMP:  53; 6HR PCP:  0.01;

CASPER         LGT RAIN  43  40  89 NE14G20   29.84R FOG
6HR MIN TEMP:  43; 6HR MAX TEMP:  57; 6HR PCP:  0.13;

DOUGLAS        CLOUDY    47  41  80 NW20G28   29.79R
6HR MIN TEMP:  47; 6HR MAX TEMP:  55; 6HR PCP: TRACE;


$$
WYZ021-027>030-104>119-070100-
SOUTHERN WYOMING

CITY           SKY/WX    TMP DP  RH WIND       PRES   REMARKS
EVANSTON       LGT RAIN  44  42  93 SW22      29.79R
6HR MIN TEMP:  44; 6HR MAX TEMP:  59; 6HR PCP: TRACE;

KEMMERER       FAIR      54  34  47 W17G23    29.77R
FORT BRIDGER   CLOUDY    57  32  38 W8        29.78R
ROCK SPRINGS   CLOUDY    52  41  66 E18       29.78R
6HR MIN TEMP:  51; 6HR MAX TEMP:  61; 6HR PCP: TRACE;

DIXON          RAIN      47  43  86 NW3       29.85R
RAWLINS        LGT RAIN  45  42  89 N13       29.82R
6HR MIN TEMP:  45; 6HR MAX TEMP:  52; 6HR PCP:  0.27;

SARATOGA       DRIZZLE   45  43  93 N9        29.82R
LARAMIE        LGT RAIN  44  42  93 N16       29.79R
6HR MIN TEMP:  43; 6HR MAX TEMP:  56; 6HR PCP:  0.55;

CHEYENNE       LGT RAIN  51  44  77 NW14      29.75R
6HR MIN TEMP:  51; 6HR MAX TEMP:  58; 6HR PCP:  0.01;

TORRINGTON     CLOUDY    57  51  80 NW21G32   29.66R
6HR MIN TEMP:  55; 6HR MAX TEMP:  61; 6HR PCP:  0.14;

PINE BLUFFS    CLOUDY    55  50  82 N16       29.69R THUNDER

$$



USA.gov is the U.S. government's official web portal to all federal, state and local government web resources and services.